Flag for Lebanon Weather past 2 weeks in Beirut, Lebanon

Now
84 °F

Passing clouds.


Feels Like: 90 °F
Forecast: 76 / 86 °F
Wind: 10 mph from Northwest

Location: Beirut Airport

Current Time: Aug 21, 2014 at 7:50:06 PM

Latest Report: Aug 21, 2014 at 7:00 PM


Visibility: 5 mi

Pressure: 29.86 "Hg

Humidity: 66%

Dew point: 72 °F

Location of BeirutLocation

Historic Weather in Beirut — Graph

°F

Beirut temperature yesterday

Maximum temperature yesterday: 86 °F (at 11:00 AM)
Minimum temperature yesterday: 77 °F (at 7:00 AM)
Average temperature yesterday: 82 °F

Past Weeks' High & Low Weather Summary

 TemperatureHumidityPressure
High88 °F (Aug 9, 12:00 PM)84% (Aug 7, 12:00 AM)29.98 "Hg (Aug 7, 12:00 AM)
Low77 °F (Aug 8, 5:00 AM)48% (Aug 9, 7:00 AM)29.62 "Hg (Aug 18, 3:00 AM)
Average83 °F68%29.81 "Hg
* Reported Aug 6 6:00 PM — Aug 21 6:00 PM, Beirut, Weather by CustomWeather, © 2014

Note: Actual official high and low records may vary slightly from our data, if they occured in-between our weather recording intervals... More about our weather records

Advertising

Beirut weather history for previous 24 hours

 ConditionsComfort  
Time TempWeatherWind HumidityBarometerVisibility
6:00 PM
Aug 21
84 °FScattered clouds.10 mph62%29.89 "Hg5 mi
5:00 PM86 °FScattered clouds.9 mph55%29.89 "Hg5 mi
4:00 PM86 °FPassing clouds.9 mph49%29.92 "Hg5 mi
3:00 PM86 °FPassing clouds.9 mph52%29.92 "Hg5 mi
2:00 PM84 °FPassing clouds.8 mph55%29.95 "Hg5 mi
1:00 PM84 °FPassing clouds.8 mph58%29.95 "Hg5 mi
12:00 PM84 °FScattered clouds.8 mph58%29.95 "Hg5 mi
11:00 AM84 °FScattered clouds.8 mph58%29.95 "Hg5 mi
10:00 AM84 °FScattered clouds.7 mph58%29.95 "Hg5 mi
9:00 AM82 °FScattered clouds.2 mph58%29.95 "Hg5 mi
8:00 AM81 °FScattered clouds.6 mph58%29.95 "Hg5 mi
7:00 AM79 °FPassing clouds.5 mph65%29.95 "Hg5 mi
6:00 AM79 °FPassing clouds.5 mph65%29.92 "Hg5 mi
5:00 AM79 °FPassing clouds.6 mph65%29.92 "Hg5 mi
4:00 AM81 °FPassing clouds.6 mph66%29.92 "Hg5 mi
3:00 AM81 °FPassing clouds.1 mph66%29.92 "Hg5 mi
2:00 AM81 °FPassing clouds.1 mph66%29.95 "Hg5 mi
1:00 AM81 °FPassing clouds.5 mph66%29.95 "HgN/A
12:00 AM79 °FPassing clouds.2 mph65%29.95 "HgN/A
11:00 PM
Aug 20
81 °FPassing clouds.1 mph66%29.95 "HgN/A
10:00 PM81 °FPassing clouds.3 mph66%29.95 "HgN/A
9:00 PM81 °FPassing clouds.3 mph66%29.95 "HgN/A
8:00 PM82 °FPassing clouds.3 mph62%29.92 "HgN/A
7:00 PM82 °FPassing clouds.6 mph62%29.92 "HgN/A
Weather by CustomWeather, © 2014

See weather overviewHow to use our weather pages